Location: Lecco
(45.8566°N, 9.3977°E)
Time: 06:54:57
(UTC+02:00)

Altair - Pass Details

Date: 19 August 2020
Orbit: 1501 x 1682 km, 47.2° (Epoch: 25 September)

Event Time Altitude Azimuth Distance (km) Brightness Sun altitude
Rises 03:18:34 0° 255° (WSW) 4,840 - -26.2°
Reaches altitude 10° 03:21:43 10° 256° (WSW) 3,832 - -25.9°
Exits shadow 03:25:48 29° 257° (WSW) 2,590 8.3 -25.6°
Maximum altitude 03:31:30 89° 348° (NNW) 1,571 7.4 -25.0°
Drops below altitude 10° 03:40:54 10° 78° (ENE) 3,697 10.1 -24.1°
Sets 03:43:53 0° 79° (E) 4,664 10.7 -23.8°
